Flag for U.S.A. Weather past 2 weeks in Metlakatla, Alaska, U.S.A.

Now
55 °F

Mostly cloudy.


Feels Like: 55 °F
Forecast: 56 / 60 °F
Wind: No wind

Location: Metlakatla - Metlakatla Seaplane Base

Current Time: Jul 25, 2014 at 9:54:30 PM

Latest Report: Jul 25, 2014 at 9:36 PM


Visibility: 10 mi

Pressure: 30.05 "Hg

Humidity: 88%

Dew point: 52 °F

Location of MetlakatlaLocation

Historic Weather in Metlakatla — Graph

°F

Metlakatla temperature yesterday

Maximum temperature yesterday: 61 °F (at 10:36 AM)
Minimum temperature yesterday: 54 °F (at 7:10 PM)
Average temperature yesterday: 55 °F

Past Weeks' High & Low Weather Summary

 TemperatureHumidityPressure
High72 °F (Jul 12, 3:56 PM)94% (Jul 11, 4:16 AM)30.22 "Hg (Jul 11, 4:16 AM)
Low52 °F (Jul 23, 3:16 AM)56% (Jul 11, 9:16 PM)29.65 "Hg (Jul 19, 1:36 AM)
Average58 °F84%30.01 "Hg
* Reported Jul 10 8:36 PM — Jul 25 8:56 PM, Metlakatla, Weather by CustomWeather, © 2014

Note: Actual official high and low records may vary slightly from our data, if they occured in-between our weather recording intervals... More about our weather records

Advertising

Metlakatla weather history for previous 24 hours

 ConditionsComfort  
Time TempWeatherWind HumidityBarometerVisibility
8:56 PM
Jul 25
55 °FMore clouds than sun.3 mph88%30.05 "Hg10 mi
8:36 PM55 °FBroken clouds.No wind88%30.05 "Hg10 mi
8:16 PM55 °FCloudy.5 mph88%30.05 "Hg8 mi
7:56 PM55 °FBroken clouds.3 mph88%30.05 "Hg5 mi
7:36 PM57 °FCloudy.7 mph82%30.05 "Hg10 mi
6:56 PM55 °FMostly cloudy.6 mph88%30.05 "Hg7 mi
6:36 PM57 °FMostly cloudy.7 mph82%30.06 "Hg5 mi
6:16 PM57 °FCloudy.6 mph82%30.06 "Hg10 mi
5:56 PM57 °FMostly cloudy.8 mph82%30.06 "Hg10 mi
5:36 PM57 °FMostly cloudy.8 mph82%30.06 "Hg10 mi
5:16 PM57 °FOvercast.10 mph82%30.06 "Hg10 mi
4:56 PM57 °FOvercast.7 mph82%30.06 "Hg10 mi
4:16 PM57 °FMore clouds than sun.5 mph82%30.06 "Hg10 mi
3:56 PM57 °FMostly cloudy.8 mph88%30.06 "Hg10 mi
3:36 PM57 °FMostly cloudy.7 mph88%30.06 "Hg10 mi
3:16 PM57 °FMostly cloudy.9 mph88%30.06 "Hg10 mi
2:16 PM57 °FMostly cloudy.10 mph88%30.05 "Hg10 mi
1:56 PM57 °FMostly cloudy.8 mph88%30.05 "Hg10 mi
1:36 PM57 °FMostly cloudy.12 mph88%30.05 "Hg10 mi
1:16 PM57 °FCloudy.13 mph88%30.05 "Hg10 mi
12:56 PM57 °FMostly cloudy.8 mph88%30.05 "Hg10 mi
12:36 PM55 °FBroken clouds.12 mph94%30.05 "Hg7 mi
12:16 PM55 °FCloudy.7 mph94%30.05 "Hg5 mi
11:56 AM55 °FBroken clouds.10 mph88%30.05 "Hg5 mi
11:36 AM57 °FCloudy.7 mph88%30.05 "Hg10 mi
11:16 AM57 °FBroken clouds.9 mph82%30.05 "Hg6 mi
10:36 AM57 °FMostly cloudy.12 mph82%30.04 "Hg10 mi
10:16 AM57 °FCloudy.7 mph82%30.04 "Hg10 mi
9:36 AM57 °FMostly cloudy.7 mph82%30.03 "Hg10 mi
9:16 AM57 °FCloudy.8 mph82%30.03 "Hg10 mi
8:56 AM59 °FMore clouds than sun.10 mph77%30.02 "Hg10 mi
8:36 AM57 °FBroken clouds.10 mph88%30.02 "Hg10 mi
7:56 AM55 °FMore clouds than sun.10 mph88%30.02 "Hg10 mi
7:36 AM55 °FBroken clouds.7 mph88%30.02 "Hg10 mi
6:36 AM55 °FCloudy.8 mph88%30.02 "Hg10 mi
6:16 AM55 °FCloudy.6 mph88%30.02 "Hg10 mi
5:56 AM55 °FCloudy.6 mph88%30.02 "Hg10 mi
5:36 AM55 °FOvercast.5 mph88%30.02 "Hg10 mi
4:36 AM54 °FOvercast.3 mph94%30.02 "Hg10 mi
4:16 AM54 °FMostly cloudy.No wind94%30.02 "Hg10 mi
3:56 AM54 °FMostly cloudy.No wind94%30.02 "Hg10 mi
3:36 AM54 °FMostly cloudy.3 mph94%30.02 "Hg10 mi
2:56 AM54 °FMostly cloudy.No wind94%30.03 "Hg10 mi
2:16 AM54 °FMostly cloudy.5 mph94%30.04 "Hg9 mi
1:56 AM54 °FMostly cloudy.No wind94%30.03 "Hg10 mi
1:36 AM54 °FOvercast.5 mph94%30.03 "Hg10 mi
12:56 AM54 °FMostly cloudy.3 mph94%30.03 "Hg10 mi
12:36 AM54 °FMostly cloudy.3 mph94%30.03 "Hg10 mi
12:16 AM54 °FMostly cloudy.5 mph94%30.03 "Hg10 mi
11:56 PM
Jul 24
54 °FLow clouds.3 mph94%30.03 "Hg10 mi
11:36 PM54 °FMostly cloudy.No wind94%30.03 "Hg10 mi
10:56 PM54 °FMostly cloudy.3 mph94%30.03 "Hg10 mi
10:36 PM54 °FOvercast.3 mph94%30.03 "Hg10 mi
10:16 PM54 °FOvercast.3 mph94%30.03 "Hg10 mi
9:56 PM54 °FCloudy.No wind94%30.03 "Hg10 mi
9:36 PM55 °FLow clouds.No wind88%30.02 "Hg10 mi
9:16 PM55 °FLow clouds.5 mph88%30.02 "Hg7 mi
Weather by CustomWeather, © 2014

See weather overviewHow to use our weather pages